Home   Weather   Porto Velho   Past weeks

Flag for Brazil Past Weather in Porto Velho, Rondônia, Brazil — Yesterday and Last 2 Weeks

Now
77 °F

Passing clouds.


Feels Like: 78 °F
Forecast: 73 / 89 °F
Wind: 2 mph from North

Location: Porto Velho Aeroporto

Current Time: Jan 23, 2017 at 9:24:48 pm

Latest Report: Jan 23, 2017 at 9:00 pm


Visibility: N/A

Pressure: 29.83 "Hg

Humidity: 83%

Dew Point: 72 °F

Location of Porto VelhoLocation

Past Weather in Porto Velho — Graph

°F

Porto Velho Temperature Yesterday

Maximum temperature yesterday: 77 °F (at 12:00 am)
Minimum temperature yesterday: 72 °F (at 10:00 pm)
Average temperature yesterday: 74 °F

High & Low Weather Summary for the Past Weeks

 TemperatureHumidityPressure
High91 °F (Jan 9, 4:00 pm)100% (Jan 11, 5:00 am)29.98 "Hg (Jan 11, 5:00 am)
Low39 °F (Jan 11, 5:00 am)25% (Jan 22, 11:00 am)29.65 "Hg (Jan 15, 4:00 pm)
Average77 °F85%29.83 "Hg
* Reported Jan 8 8:00 pm — Jan 23 8:00 pm, Porto Velho, Weather by CustomWeather, © 2017

Note: Actual official high and low records may vary slightly from our data, if they occured in-between our weather recording intervals... More about our weather records

Advertising

Porto Velho Weather History for the Previous 24 Hours

Scroll right to see more
 ConditionsComfort  
Time TempWeatherWind HumidityBarometerVisibility
8:00 pm
Mon, Jan 23
81 °FPassing clouds.3 mph74%29.80 "HgN/A
7:00 pm79 °FPassing clouds.2 mph79%29.80 "HgN/A
6:00 pm84 °FScattered clouds.5 mph62%29.77 "HgN/A
5:00 pm84 °FScattered clouds.6 mph62%29.77 "HgN/A
4:00 pm84 °FScattered clouds.6 mph62%29.77 "HgN/A
3:00 pm88 °FScattered clouds.2 mph52%29.80 "HgN/A
2:00 pm84 °FScattered clouds.6 mph62%29.86 "HgN/A
1:00 pm82 °FScattered clouds.5 mph66%29.86 "HgN/A
12:00 pm84 °FBroken clouds.9 mph58%29.89 "HgN/A
11:00 am82 °FBroken clouds.9 mph70%29.92 "HgN/A
10:00 am79 °FScattered clouds.7 mph79%29.92 "HgN/A
9:00 am75 °FScattered clouds.7 mph89%29.92 "HgN/A
8:00 am73 °FPassing clouds.6 mph94%29.92 "HgN/A
7:00 am73 °FPassing clouds.3 mph94%29.89 "HgN/A
6:00 am72 °FPartly cloudy.2 mph100%29.86 "HgN/A
5:30 am72 °FPartly cloudy.3 mph100%29.86 "HgN/A
5:00 am79 °FMostly cloudy.3 mph79%29.86 "HgN/A
4:00 am73 °FMostly cloudy.8 mph94%29.83 "HgN/A
3:00 am73 °FPassing clouds.5 mph94%29.83 "HgN/A
2:00 am73 °FPassing clouds.3 mph94%29.83 "HgN/A
1:00 am72 °FPassing clouds.No wind100%29.86 "HgN/A
12:00 am72 °FPassing clouds.No wind100%29.89 "HgN/A
11:00 pm
Sun, Jan 22
72 °FClear.No wind94%29.89 "Hg10 mi
10:00 pm72 °FClear.No wind100%29.86 "Hg10 mi
9:00 pm73 °FClear.2 mph94%29.86 "Hg10 mi
Weather by CustomWeather, © 2017

See weather overviewHow to use our weather pages